Time,TemperatureF,DewpointF,PressureIn,WindDirection,WindDirectionDegrees,WindSpeedMPH,WindSpeedGustMPH,Humidity,HourlyPrecipIn,Conditions,Clouds,dailyrainin,SoftwareType,DateUTC
2013-03-24 00:00:00,32.0,22.6,30.09,East,90,0.0,6.0,68,0.00,,,0.00,meteohub,2013-03-24 05:00:00,
2013-03-24 00:05:00,32.0,22.6,30.09,ENE,68,3.0,6.0,68,0.00,,,0.00,meteohub,2013-03-24 05:05:00,
2013-03-24 00:10:00,32.0,23.0,30.09,NNE,22,3.0,10.0,69,0.00,,,0.00,meteohub,2013-03-24 05:10:00,
2013-03-24 00:15:00,32.0,23.0,30.09,North,0,5.0,10.0,69,0.00,,,0.00,meteohub,2013-03-24 05:15:00,
2013-03-24 00:20:00,32.0,23.0,30.09,ENE,68,5.0,10.0,69,0.00,,,0.00,meteohub,2013-03-24 05:20:00,
2013-03-24 00:26:00,32.0,23.4,30.09,NE,45,3.0,5.0,70,0.00,,,0.00,meteohub,2013-03-24 05:26:00,
2013-03-24 00:31:00,31.8,23.2,30.09,NNE,22,3.0,5.0,70,0.00,,,0.00,meteohub,2013-03-24 05:31:00,
2013-03-24 00:36:00,31.8,23.2,30.09,North,0,3.0,6.0,70,0.00,,,0.00,meteohub,2013-03-24 05:36:00,
2013-03-24 00:41:00,31.8,23.2,30.06,NE,45,2.0,6.0,70,0.00,,,0.00,meteohub,2013-03-24 05:41:00,
2013-03-24 00:46:00,31.8,23.2,30.06,NNW,338,3.0,7.0,70,0.00,,,0.00,meteohub,2013-03-24 05:46:00,
2013-03-24 00:51:00,31.8,23.5,30.06,North,0,6.0,7.0,71,0.00,,,0.00,meteohub,2013-03-24 05:51:00,
2013-03-24 00:56:00,31.8,23.5,30.06,NNE,22,4.0,7.0,71,0.00,,,0.00,meteohub,2013-03-24 05:56:00,
2013-03-24 01:01:00,31.6,23.0,30.06,North,0,9.0,9.0,70,0.00,,,0.00,meteohub,2013-03-24 06:01:00,
2013-03-24 01:06:00,31.6,23.0,30.06,NE,45,3.0,9.0,70,0.00,,,0.00,meteohub,2013-03-24 06:06:00,
2013-03-24 01:11:00,31.6,23.0,30.06,NE,45,3.0,9.0,70,0.00,,,0.00,meteohub,2013-03-24 06:11:00,
2013-03-24 01:16:00,31.6,23.0,30.06,North,0,3.0,9.0,70,0.00,,,0.00,meteohub,2013-03-24 06:16:00,
2013-03-24 01:21:00,31.6,22.6,30.06,NE,45,3.0,9.0,69,0.00,,,0.00,meteohub,2013-03-24 06:21:00,
2013-03-24 01:26:00,31.6,22.3,30.03,NNE,22,6.0,10.0,68,0.00,,,0.00,meteohub,2013-03-24 06:26:00,
2013-03-24 01:31:00,31.6,21.9,30.03,NE,45,4.0,10.0,67,0.00,,,0.00,meteohub,2013-03-24 06:31:00,
2013-03-24 01:36:00,31.5,21.7,30.03,NNE,22,3.0,10.0,67,0.00,,,0.00,meteohub,2013-03-24 06:36:00,
2013-03-24 01:42:00,31.5,21.4,30.06,East,90,7.0,10.0,66,0.00,,,0.00,meteohub,2013-03-24 06:42:00,
2013-03-24 01:47:00,31.5,21.4,30.06,NE,45,8.0,10.0,66,0.00,,,0.00,meteohub,2013-03-24 06:47:00,
2013-03-24 01:52:00,31.5,21.4,30.06,East,90,6.0,13.0,66,0.00,,,0.00,meteohub,2013-03-24 06:52:00,
2013-03-24 01:57:00,31.5,21.4,30.06,ENE,68,0.0,13.0,66,0.00,,,0.00,meteohub,2013-03-24 06:57:00,
2013-03-24 02:02:00,31.5,21.0,30.06,NNE,22,5.0,8.0,65,0.00,,,0.00,meteohub,2013-03-24 07:02:00,
2013-03-24 02:07:00,31.5,21.0,30.06,ENE,68,4.0,8.0,65,0.00,,,0.00,meteohub,2013-03-24 07:07:00,
2013-03-24 02:12:00,31.5,21.0,30.06,NE,45,6.0,8.0,65,0.00,,,0.00,meteohub,2013-03-24 07:12:00,
2013-03-24 02:17:00,31.5,21.0,30.06,NE,45,5.0,10.0,65,0.00,,,0.00,meteohub,2013-03-24 07:17:00,
2013-03-24 02:22:00,31.3,20.8,30.06,NE,45,6.0,13.0,65,0.00,,,0.00,meteohub,2013-03-24 07:22:00,
2013-03-24 02:27:00,31.3,20.8,30.06,NE,45,5.0,13.0,65,0.00,,,0.00,meteohub,2013-03-24 07:27:00,
2013-03-24 02:32:00,31.3,20.8,30.06,NNE,22,6.0,13.0,65,0.00,,,0.00,meteohub,2013-03-24 07:32:00,
2013-03-24 02:37:00,31.3,20.8,30.06,NE,45,7.0,9.0,65,0.00,,,0.00,meteohub,2013-03-24 07:37:00,
2013-03-24 02:42:00,31.3,20.8,30.06,NNE,22,6.0,9.0,65,0.00,,,0.00,meteohub,2013-03-24 07:42:00,
2013-03-24 02:47:00,31.1,20.7,30.06,ENE,68,6.0,13.0,65,0.00,,,0.00,meteohub,2013-03-24 07:47:00,
2013-03-24 02:52:00,31.1,20.7,30.03,NE,45,3.0,13.0,65,0.00,,,0.00,meteohub,2013-03-24 07:52:00,
2013-03-24 02:57:00,31.1,20.7,30.03,NE,45,12.0,12.0,65,0.00,,,0.00,meteohub,2013-03-24 07:57:00,
2013-03-24 03:02:00,31.1,20.7,30.03,NNE,22,8.0,12.0,65,0.00,,,0.00,meteohub,2013-03-24 08:02:00,
2013-03-24 03:07:00,31.1,20.7,30.03,NE,45,4.0,13.0,65,0.00,,,0.00,meteohub,2013-03-24 08:07:00,
2013-03-24 03:12:00,31.1,20.7,30.03,NE,45,4.0,13.0,65,0.00,,,0.00,meteohub,2013-03-24 08:12:00,
2013-03-24 03:17:00,31.1,20.7,30.03,NNE,22,11.0,13.0,65,0.00,,,0.00,meteohub,2013-03-24 08:17:00,
2013-03-24 03:22:00,31.1,20.7,30.03,NNW,338,0.0,16.0,65,0.00,,,0.00,meteohub,2013-03-24 08:22:00,
2013-03-24 03:27:00,31.1,20.7,30.03,NNE,22,3.0,16.0,65,0.00,,,0.00,meteohub,2013-03-24 08:27:00,
2013-03-24 03:32:00,30.9,20.1,30.03,NE,45,8.0,16.0,64,0.00,,,0.00,meteohub,2013-03-24 08:32:00,
2013-03-24 03:38:00,30.9,20.1,30.00,North,0,4.0,13.0,64,0.00,,,0.00,meteohub,2013-03-24 08:38:00,
2013-03-24 03:43:00,30.9,20.1,30.00,ENE,68,6.0,13.0,64,0.00,,,0.00,meteohub,2013-03-24 08:43:00,
2013-03-24 03:48:00,30.9,20.1,30.00,NE,45,6.0,13.0,64,0.00,,,0.00,meteohub,2013-03-24 08:48:00,
2013-03-24 03:53:00,30.9,20.1,29.97,NNE,22,4.0,13.0,64,0.00,,,0.00,meteohub,2013-03-24 08:53:00,
2013-03-24 03:58:00,30.7,19.6,29.97,NE,45,6.0,13.0,63,0.00,,,0.00,meteohub,2013-03-24 08:58:00,
2013-03-24 04:03:00,30.7,19.6,29.97,ENE,68,11.0,13.0,63,0.00,,,0.00,meteohub,2013-03-24 09:03:00,
2013-03-24 04:08:00,30.7,19.6,30.00,NNW,338,10.0,13.0,63,0.00,,,0.00,meteohub,2013-03-24 09:08:00,
2013-03-24 04:13:00,30.7,19.6,30.00,NE,45,5.0,13.0,63,0.00,,,0.00,meteohub,2013-03-24 09:13:00,
2013-03-24 04:18:00,30.7,19.6,30.00,WNW,292,9.0,13.0,63,0.00,,,0.00,meteohub,2013-03-24 09:18:00,
2013-03-24 04:23:00,30.7,19.2,30.00,NE,45,10.0,12.0,62,0.00,,,0.00,meteohub,2013-03-24 09:23:00,
2013-03-24 04:28:00,30.7,19.2,30.00,NNE,22,7.0,12.0,62,0.00,,,0.00,meteohub,2013-03-24 09:28:00,
2013-03-24 04:33:00,30.7,19.2,30.00,North,0,10.0,10.0,62,0.00,,,0.00,meteohub,2013-03-24 09:33:00,
2013-03-24 04:38:00,30.7,19.2,30.00,NNE,22,3.0,11.0,62,0.00,,,0.00,meteohub,2013-03-24 09:38:00,
2013-03-24 04:43:00,30.7,19.2,30.00,NNW,338,2.0,11.0,62,0.00,,,0.00,meteohub,2013-03-24 09:43:00,
2013-03-24 04:48:00,30.7,19.2,30.00,NE,45,3.0,11.0,62,0.00,,,0.00,meteohub,2013-03-24 09:48:00,
2013-03-24 04:53:00,30.7,19.2,30.00,NE,45,4.0,10.0,62,0.00,,,0.00,meteohub,2013-03-24 09:53:00,
2013-03-24 04:58:00,30.7,19.2,30.00,ENE,68,0.0,13.0,62,0.00,,,0.00,meteohub,2013-03-24 09:58:00,
2013-03-24 05:03:00,30.7,19.2,30.00,North,0,2.0,13.0,62,0.00,,,0.00,meteohub,2013-03-24 10:03:00,
2013-03-24 05:08:00,30.7,19.2,30.00,NE,45,10.0,13.0,62,0.00,,,0.00,meteohub,2013-03-24 10:08:00,
2013-03-24 05:13:00,30.7,19.2,30.00,NNE,22,6.0,13.0,62,0.00,,,0.00,meteohub,2013-03-24 10:13:00,
2013-03-24 05:18:00,30.7,19.2,30.00,ENE,68,5.0,13.0,62,0.00,,,0.00,meteohub,2013-03-24 10:18:00,
2013-03-24 05:23:00,30.7,19.6,30.00,NW,315,6.0,13.0,63,0.00,,,0.00,meteohub,2013-03-24 10:23:00,
2013-03-24 05:28:00,30.7,19.6,30.00,NE,45,4.0,11.0,63,0.00,,,0.00,meteohub,2013-03-24 10:28:00,
2013-03-24 05:33:00,30.9,19.8,30.00,NNW,338,2.0,11.0,63,0.00,,,0.00,meteohub,2013-03-24 10:33:00,
2013-03-24 05:38:00,30.9,19.8,30.00,NE,45,5.0,9.0,63,0.00,,,0.00,meteohub,2013-03-24 10:38:00,
2013-03-24 05:43:00,30.9,19.8,30.00,ENE,68,6.0,7.0,63,0.00,,,0.00,meteohub,2013-03-24 10:43:00,
2013-03-24 05:48:00,30.9,20.1,30.00,NE,45,4.0,9.0,64,0.00,,,0.00,meteohub,2013-03-24 10:48:00,
2013-03-24 05:53:00,30.9,20.1,29.97,NNE,22,4.0,10.0,64,0.00,,,0.00,meteohub,2013-03-24 10:53:00,
2013-03-24 05:58:00,30.9,20.5,29.97,North,0,3.0,10.0,65,0.00,,,0.00,meteohub,2013-03-24 10:58:00,
2013-03-24 06:03:00,30.9,20.5,29.97,NNW,338,6.0,10.0,65,0.00,,,0.00,meteohub,2013-03-24 11:03:00,
2013-03-24 06:08:00,30.9,20.5,29.97,North,0,0.0,10.0,65,0.00,,,0.00,meteohub,2013-03-24 11:08:00,
2013-03-24 06:13:00,30.9,20.8,29.97,NE,45,7.0,9.0,66,0.00,,,0.00,meteohub,2013-03-24 11:13:00,
2013-03-24 06:18:00,30.9,20.8,29.97,NE,45,8.0,9.0,66,0.00,,,0.00,meteohub,2013-03-24 11:18:00,
2013-03-24 06:23:00,30.9,20.8,29.97,NNW,338,6.0,9.0,66,0.00,,,0.00,meteohub,2013-03-24 11:23:00,
2013-03-24 06:28:00,30.9,20.8,29.97,NNW,338,5.0,10.0,66,0.00,,,0.00,meteohub,2013-03-24 11:28:00,
2013-03-24 06:33:00,30.9,21.2,29.97,NNE,22,7.0,10.0,67,0.00,,,0.00,meteohub,2013-03-24 11:33:00,
2013-03-24 06:38:00,30.9,21.2,29.97,NNE,22,5.0,13.0,67,0.00,,,0.00,meteohub,2013-03-24 11:38:00,
2013-03-24 06:43:00,30.9,21.2,29.97,NW,315,4.0,13.0,67,0.00,,,0.00,meteohub,2013-03-24 11:43:00,
2013-03-24 06:48:00,30.9,21.6,29.97,NE,45,5.0,11.0,68,0.00,,,0.00,meteohub,2013-03-24 11:48:00,
2013-03-24 06:53:00,31.1,21.7,29.94,North,0,6.0,11.0,68,0.00,,,0.00,meteohub,2013-03-24 11:53:00,
2013-03-24 06:58:00,31.1,21.7,29.94,NE,45,10.0,11.0,68,0.00,,,0.00,meteohub,2013-03-24 11:58:00,
2013-03-24 07:03:00,31.1,22.1,29.94,North,0,6.0,13.0,69,0.00,,,0.00,meteohub,2013-03-24 12:03:00,
2013-03-24 07:08:00,31.1,22.1,29.94,North,0,5.0,13.0,69,0.00,,,0.00,meteohub,2013-03-24 12:08:00,
2013-03-24 07:13:00,31.1,22.1,29.94,NE,45,9.0,13.0,69,0.00,,,0.00,meteohub,2013-03-24 12:13:00,
2013-03-24 07:18:00,31.1,22.5,29.94,NNE,22,6.0,10.0,70,0.00,,,0.00,meteohub,2013-03-24 12:18:00,
2013-03-24 07:23:00,31.1,22.5,29.94,NNW,338,7.0,13.0,70,0.00,,,0.00,meteohub,2013-03-24 12:23:00,
2013-03-24 07:28:00,31.1,22.5,29.94,NE,45,9.0,13.0,70,0.00,,,0.00,meteohub,2013-03-24 12:28:00,
2013-03-24 07:33:00,31.3,22.6,29.94,North,0,5.0,13.0,70,0.00,,,0.00,meteohub,2013-03-24 12:33:00,
2013-03-24 07:38:00,31.3,23.0,29.94,NNE,22,3.0,12.0,71,0.00,,,0.00,meteohub,2013-03-24 12:38:00,
2013-03-24 07:43:00,31.5,23.2,29.94,NE,45,8.0,12.0,71,0.00,,,0.00,meteohub,2013-03-24 12:43:00,
2013-03-24 07:48:00,31.5,23.2,29.94,NNE,22,4.0,9.0,71,0.00,,,0.00,meteohub,2013-03-24 12:48:00,
2013-03-24 07:53:00,31.6,23.4,29.94,NE,45,0.0,8.0,71,0.00,,,0.00,meteohub,2013-03-24 12:53:00,
2013-03-24 07:58:00,31.6,23.4,29.94,NE,45,7.0,10.0,71,0.00,,,0.00,meteohub,2013-03-24 12:58:00,
2013-03-24 08:03:00,31.8,23.5,29.94,ENE,68,2.0,10.0,71,0.00,,,0.00,meteohub,2013-03-24 13:03:00,
2013-03-24 08:09:00,31.8,23.9,29.94,NNE,22,3.0,13.0,72,0.00,,,0.00,meteohub,2013-03-24 13:09:00,
2013-03-24 08:14:00,32.0,24.1,29.94,NNW,338,5.0,13.0,72,0.00,,,0.00,meteohub,2013-03-24 13:14:00,
2013-03-24 08:19:00,32.0,24.1,29.94,NE,45,4.0,13.0,72,0.00,,,0.00,meteohub,2013-03-24 13:19:00,
2013-03-24 08:24:00,32.2,24.3,29.94,NNE,22,3.0,9.0,72,0.00,,,0.00,meteohub,2013-03-24 13:24:00,
2013-03-24 08:29:00,32.2,24.3,29.94,North,0,5.0,9.0,72,0.00,,,0.00,meteohub,2013-03-24 13:29:00,
2013-03-24 08:34:00,32.4,24.4,29.94,NNW,338,6.0,8.0,72,0.00,,,0.00,meteohub,2013-03-24 13:34:00,
2013-03-24 08:39:00,32.5,24.8,29.94,ENE,68,13.0,13.0,73,0.00,,,0.00,meteohub,2013-03-24 13:39:00,
2013-03-24 08:44:00,32.5,24.8,29.94,ENE,68,5.0,13.0,73,0.00,,,0.00,meteohub,2013-03-24 13:44:00,
2013-03-24 08:49:00,32.5,24.8,29.94,North,0,5.0,13.0,73,0.00,,,0.00,meteohub,2013-03-24 13:49:00,
2013-03-24 08:54:00,32.5,25.2,29.94,North,0,4.0,13.0,74,0.00,,,0.00,meteohub,2013-03-24 13:54:00,
2013-03-24 08:59:00,32.5,25.2,29.94,NNE,22,6.0,11.0,74,0.00,,,0.00,meteohub,2013-03-24 13:59:00,
2013-03-24 09:04:00,32.5,25.5,29.94,ENE,68,13.0,13.0,75,0.00,,,0.00,meteohub,2013-03-24 14:04:00,
2013-03-24 09:09:00,32.7,26.4,29.94,ENE,68,8.0,13.0,77,0.00,,,0.00,meteohub,2013-03-24 14:09:00,
2013-03-24 09:14:00,32.9,26.4,29.94,NE,45,6.0,17.0,77,0.00,,,0.00,meteohub,2013-03-24 14:14:00,
2013-03-24 09:19:00,33.1,27.0,29.94,NNE,22,6.0,17.0,78,0.00,,,0.00,meteohub,2013-03-24 14:19:00,
2013-03-24 09:24:00,33.1,27.0,29.91,NW,315,12.0,17.0,78,0.00,,,0.00,meteohub,2013-03-24 14:24:00,
2013-03-24 09:29:00,33.1,27.0,29.91,NE,45,6.0,13.0,78,0.00,,,0.00,meteohub,2013-03-24 14:29:00,
2013-03-24 09:34:00,33.1,26.6,29.91,NE,45,7.0,16.0,77,0.00,,,0.00,meteohub,2013-03-24 14:34:00,
2013-03-24 09:39:00,33.3,26.8,29.91,North,0,6.0,16.0,77,0.00,,,0.00,meteohub,2013-03-24 14:39:00,
2013-03-24 09:44:00,33.3,26.8,29.91,NE,45,10.0,16.0,77,0.00,,,0.00,meteohub,2013-03-24 14:44:00,
2013-03-24 09:49:00,33.3,26.8,29.91,ENE,68,10.0,14.0,77,0.00,,,0.00,meteohub,2013-03-24 14:49:00,
2013-03-24 09:54:00,33.3,26.8,29.91,NE,45,10.0,16.0,77,0.00,,,0.00,meteohub,2013-03-24 14:54:00,
2013-03-24 09:59:00,33.4,27.0,29.91,NE,45,17.0,17.0,77,0.00,,,0.00,meteohub,2013-03-24 14:59:00,
2013-03-24 10:04:00,33.4,27.0,29.91,NE,45,13.0,19.0,77,0.00,,,0.00,meteohub,2013-03-24 15:04:00,
2013-03-24 10:09:00,33.4,27.0,29.88,NNE,22,13.0,19.0,77,0.00,,,0.00,meteohub,2013-03-24 15:09:00,
2013-03-24 10:14:00,33.4,26.8,29.88,NNW,338,6.0,19.0,76,0.00,,,0.00,meteohub,2013-03-24 15:14:00,
2013-03-24 10:20:00,33.3,26.6,29.88,NNE,22,6.0,18.0,76,0.00,,,0.00,meteohub,2013-03-24 15:20:00,
2013-03-24 10:25:00,33.1,26.4,29.88,North,0,11.0,15.0,76,0.00,,,0.00,meteohub,2013-03-24 15:25:00,
2013-03-24 10:30:00,32.9,26.2,29.88,ENE,68,17.0,17.0,76,0.00,,,0.00,meteohub,2013-03-24 15:30:00,
2013-03-24 10:35:00,32.9,25.9,29.88,North,0,13.0,17.0,75,0.00,,,0.00,meteohub,2013-03-24 15:35:00,
2013-03-24 10:40:00,32.9,25.5,29.88,East,90,10.0,21.0,74,0.00,,,0.00,meteohub,2013-03-24 15:40:00,
2013-03-24 10:45:00,33.1,25.7,29.88,NE,45,16.0,21.0,74,0.00,,,0.00,meteohub,2013-03-24 15:45:00,
2013-03-24 10:50:00,33.1,25.3,29.88,ENE,68,7.0,24.0,73,0.00,,,0.00,meteohub,2013-03-24 15:50:00,
2013-03-24 10:55:00,33.3,25.5,29.88,ENE,68,8.0,24.0,73,0.00,,,0.00,meteohub,2013-03-24 15:55:00,
2013-03-24 11:00:00,33.4,25.3,29.88,East,90,13.0,24.0,72,0.00,,,0.00,meteohub,2013-03-24 16:00:00,
2013-03-24 11:05:00,33.6,25.3,29.88,NE,45,20.0,21.0,71,0.00,,,0.00,meteohub,2013-03-24 16:05:00,
2013-03-24 11:10:00,33.6,25.0,29.88,NW,315,12.0,21.0,70,0.00,,,0.00,meteohub,2013-03-24 16:10:00,
2013-03-24 11:15:00,33.6,25.0,29.88,ENE,68,10.0,21.0,70,0.00,,,0.00,meteohub,2013-03-24 16:15:00,
2013-03-24 11:20:00,33.8,25.2,29.88,NNE,22,10.0,21.0,70,0.00,,,0.00,meteohub,2013-03-24 16:20:00,
2013-03-24 11:25:00,33.8,25.2,29.85,NW,315,9.0,17.0,70,0.00,,,0.00,meteohub,2013-03-24 16:25:00,
2013-03-24 11:30:00,33.8,24.8,29.85,NE,45,11.0,17.0,69,0.00,,,0.00,meteohub,2013-03-24 16:30:00,
2013-03-24 11:35:00,33.8,24.8,29.85,ENE,68,6.0,17.0,69,0.00,,,0.00,meteohub,2013-03-24 16:35:00,
2013-03-24 11:40:00,33.8,24.8,29.88,NNW,338,7.0,17.0,69,0.00,,,0.00,meteohub,2013-03-24 16:40:00,
2013-03-24 11:45:00,34.0,24.3,29.88,North,0,14.0,20.0,67,0.00,,,0.00,meteohub,2013-03-24 16:45:00,
2013-03-24 11:50:00,34.0,23.9,29.88,NW,315,9.0,24.0,66,0.00,,,0.00,meteohub,2013-03-24 16:50:00,
2013-03-24 11:55:00,34.2,24.1,29.91,NNE,22,10.0,32.0,66,0.00,,,0.00,meteohub,2013-03-24 16:55:00,
2013-03-24 12:00:00,34.2,23.4,29.91,NNE,22,9.0,32.0,64,0.00,,,0.00,meteohub,2013-03-24 17:00:00,
2013-03-24 12:05:00,34.3,23.9,29.91,East,90,7.0,20.0,65,0.00,,,0.00,meteohub,2013-03-24 17:05:00,
2013-03-24 12:10:00,34.5,23.7,29.91,ENE,68,11.0,17.0,64,0.00,,,0.00,meteohub,2013-03-24 17:10:00,
2013-03-24 12:15:00,34.3,22.3,29.91,NE,45,11.0,19.0,61,0.00,,,0.00,meteohub,2013-03-24 17:15:00,
2013-03-24 12:20:00,34.5,22.5,29.91,NNE,22,16.0,21.0,61,0.00,,,0.00,meteohub,2013-03-24 17:20:00,
2013-03-24 12:25:00,34.7,22.3,29.88,North,0,15.0,21.0,60,0.00,,,0.00,meteohub,2013-03-24 17:25:00,
2013-03-24 12:30:00,34.9,22.5,29.88,ESE,112,16.0,21.0,60,0.00,,,0.00,meteohub,2013-03-24 17:30:00,
2013-03-24 12:35:00,34.9,22.5,29.88,East,90,10.0,29.0,60,0.00,,,0.00,meteohub,2013-03-24 17:35:00,
2013-03-24 12:40:00,34.9,22.5,29.88,North,0,12.0,29.0,60,0.00,,,0.00,meteohub,2013-03-24 17:40:00,
2013-03-24 12:45:00,35.1,23.0,29.88,NE,45,21.0,29.0,61,0.00,,,0.00,meteohub,2013-03-24 17:45:00,
2013-03-24 12:50:00,35.2,22.8,29.88,ENE,68,9.0,21.0,60,0.00,,,0.00,meteohub,2013-03-24 17:50:00,
2013-03-24 12:55:00,35.4,22.6,29.85,North,0,6.0,21.0,59,0.00,,,0.00,meteohub,2013-03-24 17:55:00,
2013-03-24 13:00:00,36.0,23.0,29.85,East,90,10.0,21.0,59,0.00,,,0.00,meteohub,2013-03-24 18:00:00,
2013-03-24 13:05:00,36.1,22.8,29.85,NW,315,15.0,19.0,58,0.00,,,0.00,meteohub,2013-03-24 18:05:00,
2013-03-24 13:10:00,36.1,22.8,29.85,NE,45,10.0,19.0,58,0.00,,,0.00,meteohub,2013-03-24 18:10:00,
2013-03-24 13:15:00,36.3,23.0,29.85,NE,45,13.0,19.0,58,0.00,,,0.00,meteohub,2013-03-24 18:15:00,
2013-03-24 13:20:00,36.1,22.8,29.85,ENE,68,5.0,19.0,58,0.00,,,0.00,meteohub,2013-03-24 18:20:00,
2013-03-24 13:25:00,36.1,22.5,29.82,NNE,22,18.0,18.0,57,0.00,,,0.00,meteohub,2013-03-24 18:25:00,
2013-03-24 13:30:00,36.3,22.6,29.82,ENE,68,10.0,18.0,57,0.00,,,0.00,meteohub,2013-03-24 18:30:00,
2013-03-24 13:36:00,36.3,22.6,29.82,NNW,338,4.0,18.0,57,0.00,,,0.00,meteohub,2013-03-24 18:36:00,
2013-03-24 13:41:00,36.5,22.8,29.82,NNE,22,7.0,18.0,57,0.00,,,0.00,meteohub,2013-03-24 18:41:00,
2013-03-24 13:46:00,36.7,23.0,29.82,ENE,68,7.0,21.0,57,0.00,,,0.00,meteohub,2013-03-24 18:46:00,
2013-03-24 13:51:00,36.5,22.3,29.82,NW,315,16.0,21.0,56,0.00,,,0.00,meteohub,2013-03-24 18:51:00,
2013-03-24 13:56:00,36.5,22.8,29.82,NNW,338,7.0,21.0,57,0.00,,,0.00,meteohub,2013-03-24 18:56:00,
2013-03-24 14:01:00,36.3,22.1,29.82,NNW,338,9.0,21.0,56,0.00,,,0.00,meteohub,2013-03-24 19:01:00,
2013-03-24 14:06:00,36.3,22.1,29.82,East,90,8.0,21.0,56,0.00,,,0.00,meteohub,2013-03-24 19:06:00,
2013-03-24 14:11:00,36.1,21.9,29.79,NNE,22,9.0,21.0,56,0.00,,,0.00,meteohub,2013-03-24 19:11:00,
2013-03-24 14:16:00,36.1,21.9,29.79,SW,225,8.0,19.0,56,0.00,,,0.00,meteohub,2013-03-24 19:16:00,
2013-03-24 14:21:00,35.8,21.7,29.79,East,90,9.0,20.0,56,0.00,,,0.00,meteohub,2013-03-24 19:21:00,
2013-03-24 14:26:00,35.6,21.9,29.82,NNW,338,7.0,20.0,57,0.00,,,0.00,meteohub,2013-03-24 19:26:00,
2013-03-24 14:32:00,35.6,21.9,29.82,ENE,68,6.0,20.0,57,0.00,,,0.00,meteohub,2013-03-24 19:32:00,
2013-03-24 14:37:00,35.6,22.3,29.82,NNE,22,12.0,21.0,58,0.00,,,0.00,meteohub,2013-03-24 19:37:00,
2013-03-24 14:42:00,35.4,22.6,29.82,ENE,68,13.0,21.0,59,0.00,,,0.00,meteohub,2013-03-24 19:42:00,
2013-03-24 14:47:00,35.2,22.5,29.82,NW,315,6.0,21.0,59,0.00,,,0.00,meteohub,2013-03-24 19:47:00,
2013-03-24 14:52:00,35.1,22.6,29.82,NNE,22,13.0,15.0,60,0.00,,,0.00,meteohub,2013-03-24 19:52:00,
2013-03-24 14:57:00,35.1,22.6,29.82,NE,45,17.0,17.0,60,0.00,,,0.00,meteohub,2013-03-24 19:57:00,
2013-03-24 15:02:00,35.1,22.6,29.82,East,90,10.0,21.0,60,0.00,,,0.00,meteohub,2013-03-24 20:02:00,
2013-03-24 15:07:00,35.1,23.0,29.82,NE,45,16.0,21.0,61,0.00,,,0.00,meteohub,2013-03-24 20:07:00,
2013-03-24 15:12:00,35.1,23.0,29.79,NNW,338,6.0,21.0,61,0.00,,,0.00,meteohub,2013-03-24 20:12:00,
2013-03-24 15:17:00,35.1,23.0,29.79,NE,45,8.0,19.0,61,0.00,,,0.00,meteohub,2013-03-24 20:17:00,
2013-03-24 15:22:00,35.1,23.4,29.79,ENE,68,23.0,28.0,62,0.00,,,0.00,meteohub,2013-03-24 20:22:00,
2013-03-24 15:27:00,34.9,23.2,29.79,North,0,12.0,28.0,62,0.00,,,0.00,meteohub,2013-03-24 20:27:00,
2013-03-24 15:32:00,35.1,23.4,29.79,NE,45,15.0,23.0,62,0.00,,,0.00,meteohub,2013-03-24 20:32:00,
2013-03-24 15:37:00,35.1,23.4,29.79,NNW,338,13.0,23.0,62,0.00,,,0.00,meteohub,2013-03-24 20:37:00,
2013-03-24 15:42:00,35.2,23.5,29.79,NNE,22,10.0,22.0,62,0.00,,,0.00,meteohub,2013-03-24 20:42:00,
2013-03-24 15:47:00,35.2,23.9,29.79,NNE,22,9.0,22.0,63,0.00,,,0.00,meteohub,2013-03-24 20:47:00,
2013-03-24 15:52:00,35.1,23.4,29.79,NNE,22,13.0,21.0,62,0.00,,,0.00,meteohub,2013-03-24 20:52:00,
2013-03-24 15:57:00,35.1,23.4,29.79,North,0,6.0,21.0,62,0.00,,,0.00,meteohub,2013-03-24 20:57:00,
2013-03-24 16:02:00,35.1,23.4,29.79,NE,45,5.0,21.0,62,0.00,,,0.00,meteohub,2013-03-24 21:02:00,
2013-03-24 16:07:00,34.9,23.2,29.79,North,0,6.0,18.0,62,0.00,,,0.00,meteohub,2013-03-24 21:07:00,
2013-03-24 16:12:00,34.9,23.2,29.79,NNE,22,7.0,17.0,62,0.00,,,0.00,meteohub,2013-03-24 21:12:00,
2013-03-24 16:17:00,34.9,23.2,29.79,NNW,338,6.0,14.0,62,0.00,,,0.00,meteohub,2013-03-24 21:17:00,
2013-03-24 16:22:00,34.9,23.2,29.79,NNE,22,16.0,16.0,62,0.00,,,0.00,meteohub,2013-03-24 21:22:00,
2013-03-24 16:27:00,34.5,22.5,29.79,North,0,10.0,16.0,61,0.00,,,0.00,meteohub,2013-03-24 21:27:00,
2013-03-24 16:32:00,34.5,22.5,29.79,North,0,5.0,21.0,61,0.00,,,0.00,meteohub,2013-03-24 21:32:00,
2013-03-24 16:38:00,34.5,22.8,29.79,NE,45,7.0,21.0,62,0.00,,,0.00,meteohub,2013-03-24 21:38:00,
2013-03-24 16:43:00,34.5,22.8,29.79,NNW,338,14.0,21.0,62,0.00,,,0.00,meteohub,2013-03-24 21:43:00,
2013-03-24 16:48:00,34.3,23.9,29.79,NNW,338,7.0,21.0,65,0.00,,,0.00,meteohub,2013-03-24 21:48:00,
2013-03-24 16:53:00,34.2,24.1,29.79,North,0,5.0,21.0,66,0.00,,,0.00,meteohub,2013-03-24 21:53:00,
2013-03-24 16:58:00,34.0,24.3,29.79,NNW,338,3.0,21.0,67,0.00,,,0.00,meteohub,2013-03-24 21:58:00,
2013-03-24 17:03:00,34.0,24.6,29.79,ENE,68,4.0,13.0,68,0.00,,,0.00,meteohub,2013-03-24 22:03:00,
2013-03-24 17:08:00,34.0,24.3,29.79,North,0,16.0,16.0,67,0.00,,,0.00,meteohub,2013-03-24 22:08:00,
2013-03-24 17:13:00,33.8,24.1,29.79,North,0,6.0,16.0,67,0.00,,,0.00,meteohub,2013-03-24 22:13:00,
2013-03-24 17:18:00,33.8,24.1,29.79,North,0,10.0,17.0,67,0.00,,,0.00,meteohub,2013-03-24 22:18:00,
2013-03-24 17:23:00,33.6,25.0,29.79,NNW,338,6.0,17.0,70,0.00,,,0.00,meteohub,2013-03-24 22:23:00,
2013-03-24 17:28:00,33.3,25.0,29.79,NNW,338,7.0,17.0,71,0.00,,,0.00,meteohub,2013-03-24 22:28:00,
2013-03-24 17:33:00,33.1,25.3,29.79,North,0,17.0,17.0,73,0.00,,,0.00,meteohub,2013-03-24 22:33:00,
2013-03-24 17:38:00,33.1,25.3,29.82,North,0,7.0,17.0,73,0.00,,,0.00,meteohub,2013-03-24 22:38:00,
2013-03-24 17:43:00,32.9,25.9,29.82,North,0,7.0,17.0,75,0.00,,,0.00,meteohub,2013-03-24 22:43:00,
2013-03-24 17:48:00,32.7,25.7,29.82,NNW,338,11.0,18.0,75,0.00,,,0.00,meteohub,2013-03-24 22:48:00,
2013-03-24 17:53:00,32.7,25.7,29.82,NNE,22,13.0,20.0,75,0.00,,,0.00,meteohub,2013-03-24 22:53:00,
2013-03-24 17:58:00,32.7,25.7,29.82,North,0,17.0,24.0,75,0.00,,,0.00,meteohub,2013-03-24 22:58:00,
2013-03-24 18:03:00,32.5,26.4,29.82,North,0,13.0,24.0,78,0.00,,,0.00,meteohub,2013-03-24 23:03:00,
2013-03-24 18:08:00,32.5,26.4,29.79,WSW,248,11.0,21.0,78,0.00,,,0.00,meteohub,2013-03-24 23:08:00,
2013-03-24 18:13:00,32.5,26.4,29.79,NW,315,11.0,21.0,78,0.00,,,0.00,meteohub,2013-03-24 23:13:00,
2013-03-24 18:18:00,32.4,26.6,29.79,North,0,13.0,18.0,79,0.00,,,0.00,meteohub,2013-03-24 23:18:00,
2013-03-24 18:23:00,32.4,26.6,29.82,North,0,12.0,18.0,79,0.00,,,0.00,meteohub,2013-03-24 23:23:00,
2013-03-24 18:28:00,32.2,26.8,29.82,North,0,10.0,18.0,80,0.00,,,0.00,meteohub,2013-03-24 23:28:00,
2013-03-24 18:33:00,32.2,27.0,29.82,NNW,338,11.0,17.0,81,0.00,,,0.00,meteohub,2013-03-24 23:33:00,
2013-03-24 18:38:00,32.2,27.0,29.82,NNE,22,6.0,17.0,81,0.00,,,0.00,meteohub,2013-03-24 23:38:00,
2013-03-24 18:43:00,32.2,27.0,29.82,NNW,338,10.0,19.0,81,0.00,,,0.00,meteohub,2013-03-24 23:43:00,
2013-03-24 18:48:00,31.8,27.0,29.82,NNE,22,16.0,19.0,82,0.00,,,0.00,meteohub,2013-03-24 23:48:00,
2013-03-24 18:53:00,31.8,27.0,29.82,North,0,8.0,19.0,82,0.00,,,0.00,meteohub,2013-03-24 23:53:00,
2013-03-24 18:58:00,31.5,27.0,29.82,NNW,338,13.0,19.0,83,0.00,,,0.00,meteohub,2013-03-24 23:58:00,
2013-03-24 19:03:00,31.3,27.0,29.82,North,0,17.0,19.0,84,0.00,,,0.00,meteohub,2013-03-25 00:03:00,
2013-03-24 19:08:00,31.3,27.0,29.82,North,0,17.0,17.0,84,0.00,,,0.00,meteohub,2013-03-25 00:08:00,
2013-03-24 19:13:00,31.3,27.0,29.82,ENE,68,4.0,17.0,84,0.00,,,0.00,meteohub,2013-03-25 00:13:00,
2013-03-24 19:18:00,31.3,27.0,29.82,NNW,338,14.0,17.0,84,0.00,,,0.00,meteohub,2013-03-25 00:18:00,
2013-03-24 19:23:00,31.3,27.0,29.82,NNW,338,15.0,22.0,84,0.00,,,0.00,meteohub,2013-03-25 00:23:00,
2013-03-24 19:28:00,31.3,27.0,29.82,North,0,7.0,22.0,84,0.00,,,0.00,meteohub,2013-03-25 00:28:00,
2013-03-24 19:33:00,30.7,27.1,29.82,NNW,338,10.0,22.0,86,0.00,,,0.00,meteohub,2013-03-25 00:33:00,
2013-03-24 19:38:00,30.7,27.1,29.82,NNW,338,17.0,21.0,86,0.00,,,0.00,meteohub,2013-03-25 00:38:00,
2013-03-24 19:43:00,30.7,27.3,29.82,North,0,13.0,21.0,87,0.00,,,0.00,meteohub,2013-03-25 00:43:00,
2013-03-24 19:49:00,30.7,27.3,29.82,NNE,22,15.0,21.0,87,0.00,,,0.00,meteohub,2013-03-25 00:49:00,
2013-03-24 19:54:00,30.7,27.3,29.82,NNW,338,10.0,21.0,87,0.00,,,0.00,meteohub,2013-03-25 00:54:00,
2013-03-24 19:59:00,30.7,27.3,29.82,NNE,22,10.0,21.0,87,0.00,,,0.00,meteohub,2013-03-25 00:59:00,
2013-03-24 20:04:00,30.6,27.1,29.82,North,0,20.0,21.0,87,0.00,,,0.00,meteohub,2013-03-25 01:04:00,
2013-03-24 20:09:00,30.6,27.1,29.82,North,0,14.0,21.0,87,0.00,,,0.00,meteohub,2013-03-25 01:09:00,
2013-03-24 20:14:00,30.6,27.5,29.82,NNW,338,6.0,21.0,88,0.00,,,0.00,meteohub,2013-03-25 01:14:00,
2013-03-24 20:19:00,30.6,27.5,29.82,NNW,338,12.0,24.0,88,0.00,,,0.00,meteohub,2013-03-25 01:19:00,
2013-03-24 20:24:00,30.6,27.5,29.82,NW,315,11.0,24.0,88,0.00,,,0.00,meteohub,2013-03-25 01:24:00,
2013-03-24 20:29:00,30.6,27.5,29.82,North,0,20.0,24.0,88,0.00,,,0.00,meteohub,2013-03-25 01:29:00,
2013-03-24 20:34:00,30.6,27.5,29.82,NW,315,6.0,24.0,88,0.00,,,0.00,meteohub,2013-03-25 01:34:00,
2013-03-24 20:39:00,30.6,27.5,29.82,NNW,338,12.0,24.0,88,0.00,,,0.00,meteohub,2013-03-25 01:39:00,
2013-03-24 20:44:00,30.6,27.5,29.82,ENE,68,13.0,26.0,88,0.00,,,0.00,meteohub,2013-03-25 01:44:00,
2013-03-24 20:49:00,30.6,27.5,29.82,NNW,338,17.0,26.0,88,0.00,,,0.00,meteohub,2013-03-25 01:49:00,
2013-03-24 20:54:00,30.6,27.5,29.82,WSW,248,18.0,28.0,88,0.00,,,0.00,meteohub,2013-03-25 01:54:00,
2013-03-24 20:59:00,30.6,27.5,29.82,NNE,22,21.0,28.0,88,0.00,,,0.00,meteohub,2013-03-25 01:59:00,
2013-03-24 21:04:00,30.6,27.5,29.82,NNW,338,12.0,28.0,88,0.00,,,0.00,meteohub,2013-03-25 02:04:00,
2013-03-24 21:09:00,30.6,27.5,29.82,NNW,338,7.0,26.0,88,0.00,,,0.00,meteohub,2013-03-25 02:09:00,
2013-03-24 21:14:00,30.6,27.5,29.82,North,0,22.0,26.0,88,0.00,,,0.00,meteohub,2013-03-25 02:14:00,
2013-03-24 21:19:00,30.6,27.5,29.82,NNW,338,14.0,26.0,88,0.00,,,0.00,meteohub,2013-03-25 02:19:00,
2013-03-24 21:24:00,30.7,27.3,29.82,North,0,9.0,23.0,87,0.00,,,0.00,meteohub,2013-03-25 02:24:00,
2013-03-24 21:30:00,30.7,27.1,29.82,NNW,338,14.0,23.0,86,0.00,,,0.00,meteohub,2013-03-25 02:30:00,
2013-03-24 21:35:00,30.7,27.1,29.82,NW,315,9.0,28.0,86,0.00,,,0.00,meteohub,2013-03-25 02:35:00,
2013-03-24 21:40:00,30.7,26.8,29.85,North,0,17.0,28.0,85,0.00,,,0.00,meteohub,2013-03-25 02:40:00,
2013-03-24 21:45:00,30.7,26.2,29.85,NE,45,10.0,28.0,83,0.00,,,0.00,meteohub,2013-03-25 02:45:00,
2013-03-24 21:50:00,30.7,25.0,29.85,NW,315,17.0,21.0,79,0.00,,,0.00,meteohub,2013-03-25 02:50:00,
2013-03-24 21:55:00,30.7,24.4,29.85,North,0,13.0,21.0,77,0.00,,,0.00,meteohub,2013-03-25 02:55:00,
2013-03-24 22:00:00,30.7,24.4,29.85,NNW,338,21.0,21.0,77,0.00,,,0.00,meteohub,2013-03-25 03:00:00,
2013-03-24 22:05:00,30.7,24.4,29.85,North,0,11.0,21.0,77,0.00,,,0.00,meteohub,2013-03-25 03:05:00,
2013-03-24 22:10:00,30.7,22.5,29.85,NE,45,19.0,21.0,71,0.00,,,0.00,meteohub,2013-03-25 03:10:00,
2013-03-24 22:15:00,30.7,22.5,29.85,NNW,338,12.0,21.0,71,0.00,,,0.00,meteohub,2013-03-25 03:15:00,
2013-03-24 22:20:00,30.6,21.2,29.85,North,0,7.0,21.0,68,0.00,,,0.00,meteohub,2013-03-25 03:20:00,
2013-03-24 22:25:00,30.4,20.8,29.85,NNW,338,22.0,26.0,67,0.00,,,0.00,meteohub,2013-03-25 03:25:00,
2013-03-24 22:30:00,30.4,20.8,29.85,NW,315,15.0,26.0,67,0.00,,,0.00,meteohub,2013-03-25 03:30:00,
2013-03-24 22:35:00,30.4,20.8,29.85,North,0,18.0,26.0,67,0.00,,,0.00,meteohub,2013-03-25 03:35:00,
2013-03-24 22:40:00,30.4,19.8,29.82,NNW,338,10.0,24.0,64,0.00,,,0.00,meteohub,2013-03-25 03:40:00,
2013-03-24 22:45:00,30.4,19.8,29.82,North,0,6.0,24.0,64,0.00,,,0.00,meteohub,2013-03-25 03:45:00,
2013-03-24 22:50:00,30.4,19.8,29.82,North,0,18.0,24.0,64,0.00,,,0.00,meteohub,2013-03-25 03:50:00,
2013-03-24 22:55:00,30.2,19.9,29.82,NNW,338,6.0,28.0,65,0.00,,,0.00,meteohub,2013-03-25 03:55:00,
2013-03-24 23:00:00,30.2,19.9,29.82,NW,315,10.0,28.0,65,0.00,,,0.00,meteohub,2013-03-25 04:00:00,
2013-03-24 23:05:00,30.2,19.9,29.82,North,0,14.0,28.0,65,0.00,,,0.00,meteohub,2013-03-25 04:05:00,
2013-03-24 23:10:00,30.2,19.9,29.82,North,0,21.0,24.0,65,0.00,,,0.00,meteohub,2013-03-25 04:10:00,
2013-03-24 23:15:00,30.2,19.9,29.82,NNW,338,12.0,24.0,65,0.00,,,0.00,meteohub,2013-03-25 04:15:00,
2013-03-24 23:20:00,30.0,19.4,29.82,NNE,22,22.0,25.0,64,0.00,,,0.00,meteohub,2013-03-25 04:20:00,
2013-03-24 23:25:00,30.0,19.4,29.82,North,0,23.0,25.0,64,0.00,,,0.00,meteohub,2013-03-25 04:25:00,
2013-03-24 23:30:00,30.0,19.0,29.82,NNW,338,7.0,25.0,63,0.00,,,0.00,meteohub,2013-03-25 04:30:00,
2013-03-24 23:35:00,30.0,19.0,29.82,North,0,9.0,23.0,63,0.00,,,0.00,meteohub,2013-03-25 04:35:00,
2013-03-24 23:40:00,30.0,19.0,29.82,NNW,338,13.0,26.0,63,0.00,,,0.00,meteohub,2013-03-25 04:40:00,
2013-03-24 23:45:00,30.0,19.0,29.82,NNE,22,16.0,26.0,63,0.00,,,0.00,meteohub,2013-03-25 04:45:00,
2013-03-24 23:50:00,30.0,19.0,29.82,ENE,68,12.0,21.0,63,0.00,,,0.00,meteohub,2013-03-25 04:50:00,
2013-03-24 23:55:00,30.0,18.1,29.85,NNW,338,11.0,20.0,61,0.00,,,0.00,meteohub,2013-03-25 04:55:00,